SCP
0 0 0 -0 0 0 0 0 -0 0 0 0 -0 -0 0 0 -0 0 0 0 -0 -0 0 0 -0 -0 0 -0 -0 -0 -0 0 0
-0 0 0 0 0 0 0 0 0 0 0 0 0 -0 -0 0 0 0 0 -0 -0 0 0 -0 -0 -0 0 0 -0 -0 -0 -0 -0
0 -0 0 0 0 0 0 0 0 0 0 0 0 0 -0 -0 0 0 0 -0 0 0 -0 0 0 0 0 0 0 -0 -0 -0 0
-0 0 0 0 0 0 0 0 0 0 0 -0 -0 0 0 0 -0 -0 -0 -0 -0 -0 -0 -0 -0 0 -0 -0 0 0 -0 -0 0
0 0 0 -0 0 0 0 0 0 0 0 0 -0 -0 -0 -0 0 0 0 0 0 0 0 0 0 0 0 -0 0 0 -0 0 0
-0 0 0 0 0 0 0 0 0 0 0 0 0 0 -0 -0 -0 -0 -0 0 0 0 0 0 0 0 0 0 -0 0 0 0 0
0 0 0 0 0 0 0 0 0 0 0 1 0 0 0 0 0 0 -0 -0 0 0 0 0 0 0 0 0 0 0 0 0 0
0 -0 0 0 0 0 0 0 0 0 1 1 1 0 0 0 0 0 0 0 0 0 0 0 0 0 0 0 0 0 0 0 0
0 0 0 -0 -0 0 1 1 1 0 0 1 0 0 0 0 0 0 1 0 0 0 0 0 0 0 0 0 0 0 0 0 0
0 0 0 0 -0 0 0 0 0 0 1 1 0 0 1 1 1 1 1 1 0 0 1 1 0 0 0 0 0 0 0 0 0
0 0 0 0 0 0 0 0 0 0 0 1 1 1 1 2 1 1 1 1 1 1 0 1 1 1 0 0 1 0 0 0 0
0 0 0 0 0 0 0 0 0 0 0 0 1 1 1 1 1 1 1 0 1 1 1 0 0 0 1 1 0 0 0 0 0
0 0 0 0 0 0 0 0 0 0 0 0 0 0 0 0 0 0 0 0 0 0 0 0 0 0 0 0 0 0 0 0 0
0 0 0 0 0 0 0 0 0 0 0 0 0 0 0 0 0 0 0 0 0 0 0 0 0 0 0 0 0 0 0 0 0
0 0 0 0 0 0 0 0 0 0 0 0 0 0 0 0 0 0 0 0 0 0 0 0 0 0 0 0 0 0 0 0 0
0 0 0 0 0 0 0 0 0 0 0 0 0 0 0 0 0 0 0 0 0 0 0 0 0 0 0 0 0 0 0 0 0
0 0 0 0 0 0 0 0 0 0 0 0 0 0 0 0 0 0 0 0 0 0 0 0 0 0 0 0 0 0 0 0 0
0 0 0 0 0 0 0 0 0 0 0 0 0 0 0 0 0 0 0 0 0 0 0 0 0 0 0 0 0 0 0 0 0
0 0 0 0 0 0 0 0 0 0 0 0 0 0 0 0 0 0 0 0 0 0 0 0 0 0 0 0 0 0 0 0 0
0 0 0 0 0 0 0 0 0 0 0 0 0 0 0 0 0 0 0 0 0 0 0 0 0 0 0 0 0 0 0 0 0
Wind_Speed_500mb
64 59 57 55 47 46 46 45 43 41 40 41 42 42 44 37 33 24 23 23 22 22 18 19 20 20 19 18 19 19 18 14 15
64 57 55 56 50 47 46 45 46 45 41 39 40 39 42 46 40 33 26 24 26 21 24 20 23 24 24 24 23 23 21 16 21
58 56 49 51 52 48 44 44 43 42 42 39 37 37 38 38 39 37 34 32 27 24 25 26 23 26 27 25 25 24 27 20 21
33 39 46 48 49 48 46 43 43 43 43 40 39 38 38 39 37 36 35 35 31 27 26 28 30 26 23 26 26 26 27 28 25
20 41 44 45 59 50 46 43 45 46 43 42 40 38 38 39 38 37 36 39 37 34 36 32 28 27 27 28 30 27 31 28 24
17 29 35 38 43 56 52 44 43 44 44 42 37 36 37 37 37 38 37 36 35 39 40 38 32 33 32 28 28 31 27 33 31
4 2 12 28 39 44 52 41 39 41 41 42 39 37 37 37 37 36 34 33 34 33 36 41 40 38 38 34 30 28 31 30 30
16 19 8 10 25 28 35 38 36 49 52 41 52 49 40 35 34 38 36 34 35 37 37 37 41 42 42 39 34 29 28 28 32
21 20 14 11 9 14 17 23 22 25 33 45 49 48 46 38 46 49 49 49 51 45 46 42 40 38 38 38 33 38 35 32 30
16 20 16 13 1 13 25 27 42 24 15 20 39 37 44 61 56 51 46 50 48 52 56 50 44 44 39 39 37 40 36 35 32
13 18 15 14 7 9 16 21 18 19 23 19 23 26 37 39 37 37 44 44 51 48 48 57 68 53 43 43 41 42 42 43 43
11 15 10 10 12 9 8 17 15 16 18 17 11 14 17 19 23 24 32 43 45 47 48 54 53 62 60 48 46 43 43 45 54
9 9 11 11 12 8 7 9 11 5 9 9 11 18 17 16 18 20 24 30 37 38 43 43 47 48 60 55 50 40 40 42 40
11 10 11 12 13 14 12 3 4 10 10 14 15 16 16 13 14 16 21 23 19 19 21 24 31 39 47 48 46 30 23 27 37
11 9 9 11 12 15 12 10 9 12 15 16 12 12 14 14 11 11 15 13 15 23 19 22 31 29 20 14 14 23 21 15 15
11 12 11 14 15 14 17 15 11 8 13 14 11 16 16 13 9 5 4 13 2 5 6 4 8 11 12 18 21 22 22 19 19
14 15 14 13 14 16 18 21 18 18 16 12 13 13 12 9 9 12 4 5 7 7 8 9 11 11 11 12 15 19 18 19 21
23 14 14 14 16 17 19 21 22 24 25 22 19 18 15 15 14 14 5 7 8 8 6 6 9 13 12 14 14 14 18 24 22
24 19 16 17 16 19 22 22 24 25 23 21 21 24 24 26 23 22 20 20 18 13 11 8 6 5 6 4 6 1 1 3 5
27 22 21 20 20 20 22 23 24 24 24 23 26 31 31 30 28 27 26 24 21 17 19 20 20 18 18 19 18 15 10 9 8
Wind_Direction_500mb
206 204 207 206 207 206 205 205 207 206 210 214 217 214 216 217 222 214 224 239 218 239 236 240 244 242 245 250 243 249 252 259 253
204 205 205 206 207 209 208 207 210 210 211 213 213 214 215 221 221 220 221 228 238 245 244 244 255 254 257 254 247 249 244 260 262
195 203 211 206 209 212 211 210 212 214 216 217 213 210 212 212 217 231 235 241 240 237 240 265 263 270 260 256 255 255 248 255 266
199 207 210 211 210 211 214 215 212 215 216 216 216 213 212 214 220 225 232 234 243 251 258 270 276 272 263 262 261 255 251 254 258
239 218 215 229 224 214 211 214 213 215 214 216 218 218 217 220 221 223 229 238 242 247 258 266 271 257 266 270 267 255 255 254 248
223 226 225 223 224 229 224 217 218 214 217 218 219 220 223 225 228 230 234 238 246 251 253 258 260 257 261 271 271 258 258 256 255
35 191 218 221 216 225 220 212 217 218 215 217 218 223 223 229 232 233 237 244 246 246 252 257 258 255 258 266 270 266 265 257 252
48 37 47 220 206 207 220 225 219 237 233 227 234 230 228 233 238 237 238 246 251 259 257 253 254 253 253 257 262 265 265 259 255
52 50 40 61 108 192 189 233 230 236 240 237 254 250 249 245 261 258 260 264 272 264 265 262 256 250 250 255 253 250 258 260 259
60 55 43 37 157 145 203 200 210 208 219 249 241 243 241 249 258 258 265 266 263 261 260 259 258 260 254 254 251 252 255 257 258
31 62 42 41 48 238 218 222 233 243 244 242 246 242 236 237 256 255 259 265 267 267 263 260 255 254 251 254 246 253 255 259 259
48 52 49 33 32 33 258 249 239 250 240 221 216 229 208 213 234 248 253 259 264 265 260 260 248 253 251 257 256 256 260 265 257
56 46 31 28 25 13 339 289 229 204 196 216 232 235 226 243 264 271 275 280 268 263 265 255 247 246 242 243 245 247 255 260 251
82 58 48 33 38 43 45 47 196 212 195 189 206 192 217 234 251 277 280 277 274 262 243 234 236 242 240 240 222 234 236 264 251
102 111 92 86 70 62 71 89 148 196 197 204 228 222 248 239 264 279 298 262 276 268 244 247 228 211 216 193 217 218 236 265 215
137 144 124 110 100 89 82 89 109 168 186 200 209 208 213 209 210 262 32 106 149 216 186 170 182 187 201 208 211 225 227 222 216
146 147 130 114 105 106 101 91 94 98 109 141 185 186 183 198 186 180 190 225 211 242 237 222 180 202 222 225 224 227 230 233 233
150 139 128 133 126 100 103 100 97 87 80 85 110 116 122 135 152 164 188 211 229 227 243 220 212 241 245 254 249 241 244 244 225
141 144 134 121 113 115 111 105 99 96 93 95 98 96 96 99 104 105 103 101 99 97 96 84 95 115 109 89 97 293 194 245 312
143 139 131 127 121 111 106 105 103 98 97 95 96 97 98 102 98 95 95 90 90 90 86 79 79 89 87 87 80 75 75 63 87
Wind_Speed_850mb
64 59 57 55 47 46 46 45 43 41 40 41 42 42 44 37 33 24 23 23 22 22 18 19 20 20 19 18 19 19 18 14 15
64 57 55 56 50 47 46 45 46 45 41 39 40 39 42 46 40 33 26 24 26 21 24 20 23 24 24 24 23 23 21 16 21
58 56 49 51 52 48 44 44 43 42 42 39 37 37 38 38 39 37 34 32 27 24 25 26 23 26 27 25 25 24 27 20 21
33 39 46 48 49 48 46 43 43 43 43 40 39 38 38 39 37 36 35 35 31 27 26 28 30 26 23 26 26 26 27 28 25
20 41 44 45 59 50 46 43 45 46 43 42 40 38 38 39 38 37 36 39 37 34 36 32 28 27 27 28 30 27 31 28 24
17 29 35 38 43 56 52 44 43 44 44 42 37 36 37 37 37 38 37 36 35 39 40 38 32 33 32 28 28 31 27 33 31
4 2 12 28 39 44 52 41 39 41 41 42 39 37 37 37 37 36 34 33 34 33 36 41 40 38 38 34 30 28 31 30 30
16 19 8 10 25 28 35 38 36 49 52 41 52 49 40 35 34 38 36 34 35 37 37 37 41 42 42 39 34 29 28 28 32
21 20 14 11 9 14 17 23 22 25 33 45 49 48 46 38 46 49 49 49 51 45 46 42 40 38 38 38 33 38 35 32 30
16 20 16 13 1 13 25 27 42 24 15 20 39 37 44 61 56 51 46 50 48 52 56 50 44 44 39 39 37 40 36 35 32
13 18 15 14 7 9 16 21 18 19 23 19 23 26 37 39 37 37 44 44 51 48 48 57 68 53 43 43 41 42 42 43 43
11 15 10 10 12 9 8 17 15 16 18 17 11 14 17 19 23 24 32 43 45 47 48 54 53 62 60 48 46 43 43 45 54
9 9 11 11 12 8 7 9 11 5 9 9 11 18 17 16 18 20 24 30 37 38 43 43 47 48 60 55 50 40 40 42 40
11 10 11 12 13 14 12 3 4 10 10 14 15 16 16 13 14 16 21 23 19 19 21 24 31 39 47 48 46 30 23 27 37
11 9 9 11 12 15 12 10 9 12 15 16 12 12 14 14 11 11 15 13 15 23 19 22 31 29 20 14 14 23 21 15 15
11 12 11 14 15 14 17 15 11 8 13 14 11 16 16 13 9 5 4 13 2 5 6 4 8 11 12 18 21 22 22 19 19
14 15 14 13 14 16 18 21 18 18 16 12 13 13 12 9 9 12 4 5 7 7 8 9 11 11 11 12 15 19 18 19 21
23 14 14 14 16 17 19 21 22 24 25 22 19 18 15 15 14 14 5 7 8 8 6 6 9 13 12 14 14 14 18 24 22
24 19 16 17 16 19 22 22 24 25 23 21 21 24 24 26 23 22 20 20 18 13 11 8 6 5 6 4 6 1 1 3 5
27 22 21 20 20 20 22 23 24 24 24 23 26 31 31 30 28 27 26 24 21 17 19 20 20 18 18 19 18 15 10 9 8
Wind_Direction_850mb
206 204 207 206 207 206 205 205 207 206 210 214 217 214 216 217 222 214 224 239 218 239 236 240 244 242 245 250 243 249 252 259 253
204 205 205 206 207 209 208 207 210 210 211 213 213 214 215 221 221 220 221 228 238 245 244 244 255 254 257 254 247 249 244 260 262
195 203 211 206 209 212 211 210 212 214 216 217 213 210 212 212 217 231 235 241 240 237 240 265 263 270 260 256 255 255 248 255 266
199 207 210 211 210 211 214 215 212 215 216 216 216 213 212 214 220 225 232 234 243 251 258 270 276 272 263 262 261 255 251 254 258
239 218 215 229 224 214 211 214 213 215 214 216 218 218 217 220 221 223 229 238 242 247 258 266 271 257 266 270 267 255 255 254 248
223 226 225 223 224 229 224 217 218 214 217 218 219 220 223 225 228 230 234 238 246 251 253 258 260 257 261 271 271 258 258 256 255
35 191 218 221 216 225 220 212 217 218 215 217 218 223 223 229 232 233 237 244 246 246 252 257 258 255 258 266 270 266 265 257 252
48 37 47 220 206 207 220 225 219 237 233 227 234 230 228 233 238 237 238 246 251 259 257 253 254 253 253 257 262 265 265 259 255
52 50 40 61 108 192 189 233 230 236 240 237 254 250 249 245 261 258 260 264 272 264 265 262 256 250 250 255 253 250 258 260 259
60 55 43 37 157 145 203 200 210 208 219 249 241 243 241 249 258 258 265 266 263 261 260 259 258 260 254 254 251 252 255 257 258
31 62 42 41 48 238 218 222 233 243 244 242 246 242 236 237 256 255 259 265 267 267 263 260 255 254 251 254 246 253 255 259 259
48 52 49 33 32 33 258 249 239 250 240 221 216 229 208 213 234 248 253 259 264 265 260 260 248 253 251 257 256 256 260 265 257
56 46 31 28 25 13 339 289 229 204 196 216 232 235 226 243 264 271 275 280 268 263 265 255 247 246 242 243 245 247 255 260 251
82 58 48 33 38 43 45 47 196 212 195 189 206 192 217 234 251 277 280 277 274 262 243 234 236 242 240 240 222 234 236 264 251
102 111 92 86 70 62 71 89 148 196 197 204 228 222 248 239 264 279 298 262 276 268 244 247 228 211 216 193 217 218 236 265 215
137 144 124 110 100 89 82 89 109 168 186 200 209 208 213 209 210 262 32 106 149 216 186 170 182 187 201 208 211 225 227 222 216
146 147 130 114 105 106 101 91 94 98 109 141 185 186 183 198 186 180 190 225 211 242 237 222 180 202 222 225 224 227 230 233 233
150 139 128 133 126 100 103 100 97 87 80 85 110 116 122 135 152 164 188 211 229 227 243 220 212 241 245 254 249 241 244 244 225
141 144 134 121 113 115 111 105 99 96 93 95 98 96 96 99 104 105 103 101 99 97 96 84 95 115 109 89 97 293 194 245 312
143 139 131 127 121 111 106 105 103 98 97 95 96 97 98 102 98 95 95 90 90 90 86 79 79 89 87 87 80 75 75 63 87